Terminal Aerodrome Forecast
Issued by NWS

Home | Current Version | Previous Version | Graphics & Text | Print | Product List | Glossary On
Versions: 1 2 3 4 5 6 7 8 9 10 11 12 13 14 15 16 17 18
000
FTUS42 KMHX 261100
TAFPGV
TAF
KPGV 261121Z 2612/2712 34003KT P6SM SKC
     FM261500 04010G16KT P6SM SCT025 BKN050
     FM262000 04012G18KT P6SM SKC
     FM270100 05007KT P6SM SKC
      AMD LTD TO CLD VIS AND WIND=

USA.gov is the U.S. government's official web portal to all federal, state and local government web resources and services.